Total_Precipitation_Accumulation
0.31 0.29 0.29 0.26 0.24 0.16 0.11 0.08 0.11 0.06 0.01 0.02 0.04 0.05 0.08 0.11 0.16 0.19 0.18 0.10 0.05 0.02 0.00 0.00 0.00 0.00 0.00 0.01 0.03 0.04 0.14 0.63 0.82 0.72 0.86 0.57 0.48 0.52
0.08 0.07 0.06 0.07 0.08 0.07 0.06 0.03 0.02 0.02 0.01 0.00 0.00 0.00 0.01 0.02 0.03 0.05 0.09 0.10 0.04 0.01 0.01 0.00 0.00 0.00 0.00 0.00 0.00 0.00 0.03 0.14 0.60 0.90 0.86 1.04 0.94 0.61
0.01 0.01 0.01 0.01 0.01 0.01 0.01 0.01 0.02 0.03 0.01 0.00 0.00 0.00 0.00 0.00 0.00 0.00 0.01 0.02 0.02 0.01 0.00 0.00 0.00 0.00 0.00 0.00 0.00 0.00 0.00 0.01 0.11 0.44 0.72 0.89 1.13 1.27
0.01 0.01 0.01 0.00 0.00 0.00 0.00 0.00 0.00 0.00 0.00 0.00 0.00 0.00 0.00 0.00 0.00 0.00 0.00 0.00 0.00 0.00 0.00 0.00 0.00 0.00 0.00 0.00 0.00 0.00 0.00 0.00 0.00 0.06 0.28 0.59 0.87 1.15
0.00 0.00 0.00 0.00 0.00 0.00 0.00 0.00 0.00 0.00 0.00 0.00 0.00 0.00 0.00 0.00 0.00 0.00 0.00 0.00 0.00 0.00 0.00 0.00 0.00 0.00 0.00 0.00 0.00 0.00 0.00 0.00 0.00 0.00 0.02 0.22 0.43 0.64
0.00 0.00 0.00 0.00 0.00 0.00 0.00 0.00 0.00 0.00 0.00 0.00 0.00 0.00 0.00 0.00 0.00 0.00 0.00 0.00 0.00 0.00 0.00 0.00 0.00 0.00 0.00 0.00 0.01 0.00 0.00 0.00 0.00 0.00 0.00 0.03 0.23 0.46
0.00 0.00 0.00 0.00 0.00 0.00 0.00 0.00 0.00 0.00 0.00 0.00 0.00 0.00 0.00 0.00 0.00 0.00 0.00 0.00 0.00 0.00 0.00 0.00 0.00 0.00 0.00 0.00 0.00 0.00 0.00 0.00 0.00 0.00 0.00 0.00 0.02 0.16
0.00 0.00 0.00 0.00 0.00 0.00 0.00 0.00 0.00 0.01 0.01 0.01 0.01 0.00 0.00 0.00 0.00 0.00 0.00 0.00 0.01 0.00 0.00 0.00 0.00 0.00 0.00 0.00 0.00 0.00 0.00 0.00 0.00 0.00 0.00 0.00 0.00 0.03
0.00 0.00 0.00 0.00 0.00 0.00 0.00 0.00 0.00 0.00 0.01 0.02 0.03 0.02 0.01 0.00 0.01 0.02 0.02 0.02 0.01 0.00 0.01 0.02 0.01 0.02 0.01 0.00 0.00 0.00 0.00 0.00 0.00 0.00 0.00 0.01 0.00 0.01
0.00 0.00 0.00 0.00 0.00 0.00 0.02 0.02 0.02 0.02 0.01 0.02 0.04 0.03 0.01 0.01 0.02 0.03 0.04 0.07 0.04 0.01 0.02 0.05 0.02 0.02 0.02 0.01 0.00 0.00 0.00 0.00 0.00 0.00 0.01 0.01 0.00 0.01
0.00 0.01 0.01 0.01 0.01 0.02 0.08 0.10 0.05 0.02 0.01 0.02 0.02 0.02 0.02 0.02 0.02 0.07 0.13 0.14 0.11 0.02 0.01 0.03 0.03 0.03 0.02 0.01 0.01 0.00 0.00 0.00 0.00 0.00 0.00 0.01 0.01 0.00
0.02 0.01 0.01 0.02 0.08 0.11 0.16 0.17 0.15 0.04 0.02 0.03 0.02 0.02 0.02 0.03 0.02 0.10 0.15 0.17 0.10 0.07 0.01 0.03 0.03 0.03 0.07 0.02 0.02 0.02 0.02 0.01 0.00 0.00 0.00 0.00 0.01 0.00
0.04 0.03 0.04 0.19 0.15 0.08 0.07 0.11 0.08 0.06 0.05 0.05 0.03 0.03 0.02 0.02 0.03 0.05 0.09 0.16 0.16 0.12 0.01 0.07 0.10 0.04 0.08 0.05 0.03 0.04 0.04 0.03 0.02 0.01 0.00 0.00 0.00 0.00
0.09 0.14 0.20 0.10 0.07 0.03 0.03 0.04 0.05 0.05 0.07 0.09 0.10 0.07 0.07 0.06 0.05 0.06 0.08 0.09 0.08 0.06 0.02 0.12 0.20 0.05 0.07 0.08 0.06 0.04 0.05 0.05 0.04 0.02 0.01 0.01 0.00 0.00
0.20 0.17 0.11 0.10 0.04 0.03 0.07 0.07 0.06 0.12 0.16 0.14 0.10 0.07 0.07 0.07 0.09 0.09 0.07 0.07 0.10 0.07 0.03 0.07 0.17 0.08 0.11 0.12 0.07 0.05 0.08 0.09 0.06 0.05 0.03 0.03 0.03 0.01
0.11 0.13 0.15 0.07 0.06 0.10 0.11 0.08 0.12 0.14 0.11 0.13 0.09 0.06 0.07 0.08 0.11 0.12 0.18 0.13 0.19 0.09 0.03 0.04 0.07 0.11 0.17 0.08 0.05 0.04 0.04 0.07 0.07 0.03 0.02 0.05 0.12 0.14
0.13 0.15 0.10 0.09 0.08 0.08 0.06 0.05 0.07 0.06 0.07 0.09 0.11 0.08 0.06 0.06 0.07 0.10 0.12 0.13 0.17 0.09 0.09 0.06 0.06 0.13 0.17 0.18 0.18 0.06 0.06 0.08 0.07 0.07 0.07 0.05 0.07 0.11
0.14 0.13 0.14 0.13 0.12 0.10 0.08 0.05 0.04 0.05 0.04 0.07 0.07 0.06 0.05 0.05 0.06 0.07 0.07 0.08 0.09 0.10 0.12 0.16 0.21 0.29 0.23 0.16 0.11 0.05 0.04 0.07 0.06 0.08 0.07 0.08 0.06 0.08
0.12 0.13 0.14 0.13 0.10 0.05 0.05 0.06 0.07 0.08 0.05 0.07 0.07 0.07 0.07 0.07 0.09 0.07 0.08 0.11 0.14 0.18 0.20 0.19 0.23 0.25 0.24 0.21 0.20 0.11 0.12 0.08 0.09 0.09 0.09 0.09 0.07 0.08
0.12 0.13 0.12 0.10 0.06 0.04 0.03 0.04 0.04 0.05 0.03 0.04 0.06 0.07 0.07 0.07 0.08 0.07 0.09 0.10 0.11 0.13 0.10 0.08 0.11 0.11 0.15 0.18 0.24 0.12 0.11 0.09 0.10 0.11 0.10 0.11 0.10 0.09
0.11 0.10 0.10 0.07 0.05 0.04 0.04 0.04 0.04 0.04 0.03 0.03 0.04 0.05 0.06 0.06 0.05 0.04 0.04 0.04 0.03 0.04 0.04 0.04 0.05 0.06 0.05 0.04 0.09 0.11 0.06 0.07 0.06 0.08 0.10 0.12 0.12 0.08
0.08 0.07 0.07 0.06 0.05 0.04 0.03 0.02 0.02 0.02 0.02 0.02 0.03 0.04 0.05 0.05 0.05 0.04 0.03 0.03 0.02 0.03 0.02 0.02 0.03 0.04 0.03 0.03 0.07 0.09 0.06 0.07 0.08 0.07 0.07 0.08 0.07 0.13
0.05 0.04 0.04 0.03 0.02 0.02 0.01 0.01 0.02 0.02 0.02 0.02 0.02 0.03 0.03 0.03 0.03 0.04 0.02 0.02 0.02 0.01 0.01 0.02 0.02 0.02 0.03 0.02 0.02 0.06 0.05 0.06 0.06 0.08 0.06 0.06 0.05 0.04